EWS-G3 (GOES 14) 1 35491U 09033A 26256.09501000 -.00000144 00000+0 00000+0 0 9991 2 35491 1.9110 81.8051 0002120 89.8339 299.0547 1.00071564007472 EWS-G2 (GOES 15) 1 36411U 10008A 26255.92525196 .00000010 00000+0 00000+0 0 9992 2 36411 1.5146 81.8466 0005153 80.1736 226.3060 1.00271691060514 GOES 16 1 41866U 16071A 26256.25361587 -.00000102 00000+0 00000+0 0 9990 2 41866 0.5533 84.5635 0001678 130.5264 123.7900 1.00272587035986 GOES 17 1 43226U 18022A 26256.18814166 -.00000194 00000+0 00000+0 0 9999 2 43226 1.1580 84.2304 0000816 128.9678 117.2283 1.00272335031305 GOES 18 1 51850U 22021A 26256.29126220 .00000085 00000+0 00000+0 0 9992 2 51850 0.0347 340.7256 0000472 244.3451 95.0847 1.00273810007471 GOES 19 1 60133U 24119A 26256.30022250 -.00000260 00000+0 00000+0 0 9992 2 60133 0.0119 51.9998 0000480 204.9635 128.2162 1.00271121007844